Theta_e
321 322 323 324 326 326 326 325 326 321 308 305 313 316 313 313 313 313 309 310 310 306 306 304 306 305 301 304
320 321 322 323 324 324 325 325 325 317 304 311 314 314 313 313 314 313 312 311 312 308 305 306 304 301 301 298
318 319 320 323 324 324 324 324 314 308 303 318 309 311 313 310 311 311 312 311 310 306 305 300 298 300 298 298
317 318 320 323 322 320 320 320 314 305 306 303 308 309 312 311 309 308 307 307 307 303 302 299 293 296 296 298
317 317 321 319 313 308 310 306 304 303 304 311 311 307 310 309 308 305 299 302 299 297 299 300 299 298 297 297
315 318 322 314 311 312 303 308 308 307 310 311 304 305 310 304 302 298 300 299 296 299 300 299 298 298 297 297
315 320 317 312 318 315 303 304 307 306 306 309 303 304 306 304 300 297 298 296 297 299 298 297 296 298 296 296
312 313 314 316 318 316 298 296 302 306 306 307 302 306 307 304 300 297 297 297 298 296 297 296 297 294 297 295
308 309 313 316 317 309 290 299 302 309 304 302 301 302 306 304 299 298 298 296 296 296 296 296 298 296 297 296
310 311 315 319 310 295 288 296 300 299 299 301 301 302 302 305 302 298 298 298 299 299 298 298 297 297 296 295
305 314 315 309 294 290 296 294 295 298 298 298 298 299 298 298 296 293 293 295 295 297 298 296 298 297 295 291
312 313 313 299 288 290 293 298 297 297 295 296 297 297 296 296 297 296 294 292 291 294 297 297 295 295 294 290
311 315 304 291 290 292 296 295 296 294 294 295 295 296 296 295 296 296 293 292 291 296 295 297 296 293 292 294
312 311 301 292 293 299 300 299 292 294 291 293 293 294 294 295 295 296 297 295 290 293 294 297 296 295 297 292
313 305 293 294 296 301 301 297 295 293 293 294 295 293 292 297 299 296 296 295 293 292 294 294 294 293 293 293
299 300 295 296 298 299 302 300 300 297 296 297 295 293 292 296 301 299 294 295 294 291 293 294 295 295 295 295
293 294 296 295 298 297 297 297 297 299 300 297 294 296 295 298 300 300 297 298 293 289 292 292 293 292 293 294
Wind_Speed
22 23 23 23 20 18 13 4 5 5 4 7 2 6 3 1 1 1 1 1 1 4 0 3 1 4 9 10
23 24 25 24 19 11 5 3 5 4 5 1 5 6 2 2 2 3 2 2 1 1 3 0 4 5 4 5
24 25 26 24 18 4 3 6 4 4 2 1 1 3 2 2 3 3 4 3 0 2 4 5 6 4 5 5
25 26 27 21 2 4 4 4 2 5 1 1 3 3 1 1 2 2 3 2 3 5 5 6 4 2 6 4
25 27 17 2 2 5 3 5 3 4 3 7 3 2 1 5 2 2 4 2 6 6 4 3 4 5 7 10
26 20 7 6 5 4 7 2 5 7 6 3 3 3 2 5 3 4 2 5 7 1 0 2 4 5 9 11
23 4 8 9 9 5 6 2 2 3 2 6 2 1 3 2 3 4 5 8 3 2 2 3 6 7 9 11
4 6 3 12 9 6 5 3 2 3 3 2 3 2 1 2 3 4 2 6 2 4 5 7 7 9 1 4
6 3 8 12 2 5 4 2 3 3 2 2 2 2 1 3 7 3 4 2 2 4 5 2 5 2 1 4
3 4 11 10 4 5 1 2 1 0 3 2 2 1 1 2 1 4 6 14 1 4 4 2 1 1 5 4
5 11 10 3 5 5 1 3 3 2 2 1 2 1 2 5 4 4 1 3 3 1 3 6 4 5 7 4
9 8 4 5 5 3 4 3 4 3 2 2 1 0 2 4 4 4 5 4 4 1 1 4 3 1 4 4
8 5 4 5 4 3 4 7 3 3 1 2 3 2 1 4 4 4 5 3 2 2 1 1 3 5 5 3
7 5 4 3 1 3 5 3 3 4 2 4 3 2 1 7 7 3 4 2 6 1 2 2 3 4 4 3
4 2 2 3 2 3 5 4 3 3 3 3 3 2 3 6 8 8 3 2 4 4 2 7 3 5 4 2
1 2 2 4 5 6 8 3 1 2 2 4 3 2 1 5 15 6 4 4 5 6 5 4 2 2 3 6
3 3 3 3 4 7 8 6 5 7 5 3 4 2 4 5 11 11 7 7 3 5 6 4 2 4 2 2
Wind_Direction
329 326 322 320 320 323 322 277 203 237 223 269 352 328 293 53 24 7 18 29 349 256 157 231 307 283 287 282
327 324 319 318 316 311 346 134 175 232 261 148 317 282 203 171 123 82 48 45 314 335 275 26 218 253 252 286
329 324 317 316 308 283 104 147 212 261 265 287 210 345 262 210 121 113 65 86 223 323 212 243 237 206 288 270
329 323 316 308 277 221 203 229 239 252 201 51 332 329 143 153 163 160 211 221 230 245 212 229 298 297 280 260
328 323 322 287 261 178 29 314 6 306 302 331 243 190 146 150 170 221 252 57 263 257 327 284 323 294 274 277
330 320 320 60 43 306 307 301 274 270 267 291 286 173 223 219 211 242 211 221 256 342 312 218 259 263 286 292
325 338 42 45 333 201 265 297 250 272 335 199 251 155 224 176 239 233 238 267 54 112 261 249 252 256 275 307
305 345 70 345 337 203 270 79 116 111 160 255 200 340 290 283 187 280 235 268 61 247 243 256 234 278 42 276
321 328 336 328 343 226 274 73 97 97 138 251 352 100 21 205 253 229 236 63 224 227 256 284 199 354 285 284
273 338 321 314 218 235 196 100 62 165 189 183 133 352 176 162 26 237 239 268 359 265 293 101 244 92 257 240
343 323 309 242 248 252 69 43 8 351 295 177 177 235 203 202 246 258 227 236 204 241 252 246 183 233 279 275
323 308 276 232 236 56 23 -0 334 296 279 350 116 319 225 248 207 253 286 306 183 199 104 267 344 168 293 308
326 286 256 223 12 26 336 333 299 274 136 62 299 280 278 344 1 241 272 273 214 117 4 326 294 129 213 14
331 273 240 80 68 12 339 306 324 7 328 12 290 285 69 16 337 357 285 26 280 76 94 192 90 292 115 199
271 311 290 58 44 16 353 344 0 317 15 -0 312 319 37 70 355 323 274 281 262 128 216 200 193 159 206 207
27 31 67 14 342 1 5 2 340 7 22 353 309 322 45 47 353 309 1 3 302 264 265 103 5 289 277 244
47 48 47 42 29 13 20 2 20 2 354 333 291 16 34 19 11 31 26 347 219 280 188 154 145 247 186 243